sat.trackr.live / text

‹ back to catalog

STARLINK-2326

NORAD 47870 · 2021-021L

PAYLOAD ACTIVE UNKNOWN

§ Identity

Operator
Country
US
Launch date
2021-03-14
Launch site
AFETR
Launch vehicle
Mass (kg)
RCS (m²)

Purposes: comms

External: N2YO · Heavens-Above · Gunter

§ Orbital elements

Epoch: 2026-05-25T02:58:49.532160Z

Period
94.01 min
Inclination
53.1604°
Eccentricity
0.0000884
Mean motion
15.31702890 rev/d
Perigee alt
470.1 km
Apogee alt
471.3 km
Semi-major
6,848.9 km
B*
6.8604e-5
RAAN
285.4830°
Arg perigee
69.1960°
Mean anomaly
290.9136°
Rev number
28,767

§ Raw data

STARLINK-23261 47870U 21021L   26145.12418440  .00001765  00000+0  68604-4 0  99902 47870  53.1604 285.4830 0000884  69.1960 290.9136 15.31702890287674

JSON: /api/v1/satellites/47870 · /tle

For live sub-satellite position, see the globe view (requires WebGL).

§ Visibility from observer

Set your observer location to see the next 7 days of passes ≥ 10°. The values pass through the URL so the page stays shareable.

No JS? Fill the form by hand. The geolocation button needs JavaScript.